327  
ASUS43 KDMX 151306  
RWRIA  
 
WEATHER ROUNDUP FOR IOWA  
NATIONAL WEATHER SERVICE DES MOINES IA  
800 AM CDT WED AUG 15 2018  
 
NOTE: "FAIR" INDICATES FEW OR NO CLOUDS BELOW 12,000 FEET WITH NO  
SIGNIFICANT WEATHER AND/OR S TO VISIBILITY
.  
 
* - THESE STATIONS ARE NOT NWS STATIONS...THUS NOT UNDER NWS  
QUALITY CONTROL. THEY ALSO DO NOT REPORT WEATHER SUCH  
AS PRECIPITATION OR FOG.
 
 
IAZ001>003-012>014-020>022-031>034-043>046-151400-  
NORTHWEST IOWA  
 
CITY SKY/WX TMP DP RH WIND PRES REMARKS
 
CARROLL * CLOUDY 68 68 100 N6 29.93R  
CHEROKEE * CLOUDY 68 64 87 CALM 29.95R  
DENISON * CLOUDY 64 64 100 NE13 29.94S FOG  
LE MARS * CLOUDY 68 68 100 CALM 29.96R  
ORANGE CITY * MOSUNNY 70 70 100 CALM 29.97R FOG  
SHELDON * MOSUNNY 68 68 100 N6 29.96R  
SIOUX CITY SUNNY 68 65 90 NW5 29.96R  
SPENCER CLOUDY 70 68 93 N13 29.96R FOG  
STORM LAKE * LGT RAIN 66 63 88 SE9 29.95F  

 
 
IAZ055>058-069>071-079>083-090>094-151400-  
SOUTHWEST IOWA  
 
CITY SKY/WX TMP DP RH WIND PRES REMARKS
 
ATLANTIC * CLOUDY 68 68 100 NE7 29.92R  
AUDUBON * CLOUDY 66 64 94 CALM 29.94R  
CLARINDA * FOG 68 68 100 E5 29.91S VSB 1/4  
COUNCIL BLFS * CLOUDY 68 68 100 NE8 29.91S FOG  
CRESTON * CLOUDY 68 68 100 CALM 29.92R FOG  
HARLAN * N/A 66 66 100 NE9 29.93R  
LAMONI CLOUDY 70 67 90 CALM 29.89S  
RED OAK * CLOUDY 68 68 100 NE8 29.90R FOG  
SHENANDOAH * CLOUDY 68 68 100 NE6 29.90R FOG  

 
 
IAZ047>049-059>061-072>074-084-151400-  
CENTRAL IOWA  
 
CITY SKY/WX TMP DP RH WIND PRES REMARKS
 
AMES CLOUDY 71 68 90 N5 29.91S  
ANKENY * CLOUDY 72 70 94 CALM 29.91S  
BOONE * CLOUDY 70 70 100 NE8 29.91S  
CHARITON * CLOUDY 70 70 100 E5 29.90R FOG  
DES MOINES CLOUDY 71 70 96 E3 29.90R FOG  
GRINNELL* CLOUDY 71 69 95 NE3 29.93R FOG  
KNOXVILLE * CLOUDY 72 70 94 CALM 29.89S FOG  
MARSHALLTOWN RAIN 69 69 100 SE6 29.91S FOG  
NEWTON * CLOUDY 72 70 94 NE3 29.91S FOG  
PELLA * CLOUDY 72 69 91 CALM 29.91R FOG  
PERRY * CLOUDY 69 69 99 N3 29.92R  

 
 
IAZ004>006-015-016-023>025-035-036-151400-  
NORTH CENTRAL IOWA  
 
CITY SKY/WX TMP DP RH WIND PRES REMARKS
 
ALGONA * CLOUDY 70 70 100 N6G12 29.94R FOG  
CLARION * CLOUDY 70 68 94 CALM 29.95R  
ESTHERVILLE CLOUDY 68 68 100 NW6 29.95S FOG  
FORT DODGE * LGT RAIN 67 66 97 CALM 29.95R  
MASON CITY CLOUDY 71 70 96 N6 29.95R  
FOREST CITY * CLOUDY 72 70 94 CALM 29.94S  
WEBSTER CITY * LGT RAIN 68 68 100 MISG 29.92S  
IOWA FALLS * CLOUDY 71 70 95 CALM 29.94R  

 
 
IAZ007>011-017>019-026>030-037>042-050>054-066-151400-  
NORTHEAST IOWA  
 
CITY SKY/WX TMP DP RH WIND PRES REMARKS
 
CEDAR RAPIDS CLOUDY 72 71 97 SE6 29.90R FOG  
CHARLES CITY * FOG 72 72 100 N8 29.93S VSB<1/4  
CLINTON * LGT RAIN 71 71 100 SE6 29.93S FOG  
DECORAH * FAIR 70 70 100 CALM 29.92S FOG  
DUBUQUE LGT RAIN 71 69 93 SE5 29.94R FOG  
MONTICELLO * LGT RAIN 70 70 100 E6 29.91S  
OELWEIN * FAIR 72 70 94 CALM 29.94R  
WATERLOO FAIR 71 70 96 E3 29.91R FOG  

 
 
IAZ064-065-067-068-078-151400-  
EAST CENTRAL IOWA  
 
CITY SKY/WX TMP DP RH WIND PRES REMARKS
 
DAVENPORT CLOUDY 72 70 93 E7 29.93S  
IOWA CITY HVY RAIN 71 70 96 NW6 29.92R VSB 3/4  
MT. PLEASANT * CLOUDY 72 72 100 CALM 29.90S FOG  
MUSCATINE * LGT RAIN 73 72 94 SE5 29.90S  
QUAD CITIES CLOUDY 73 71 93 E6 29.91R  

 
 
IAZ062-063-075>077-085>089-095>099-151400-  
SOUTHEAST IOWA  
 
CITY SKY/WX TMP DP RH WIND PRES REMARKS
 
BURLINGTON CLOUDY 73 71 93 SE3 29.90R  
FAIRFIELD * CLOUDY 72 72 100 CALM 29.90R FOG  
FORT MADISON * CLOUDY 72 72 100 CALM 29.91R  
KEOKUK * CLOUDY 72 70 94 CALM 29.90R  
OSKALOOSA * CLOUDY 70 69 98 CALM 29.90S FOG  
CENTERVILLE * N/A 70 70 100 CALM 29.91F  
OTTUMWA CLOUDY 72 71 97 N3 29.89S  
WASHINGTON * PTSUNNY 73 72 94 E6 29.91S  

 
 
ABBREVIATIONS USED IN REMARKS  
TC - TEMPERATURES IN CELSIUS  
WCI - WIND CHILL INDEX  
HX - HEAT INDEX  
VSB - VISIBILITY  

 
 
 
 
CLICK HERE TO GO TO PREVIOUS BULLETINS.

The Nexlab IA Page Main Text Page